Weather History for KCXY - January, 2013

Change the Weather History Date:

Monday, January 7, 2013

  Actual Average Record
Temperature  
Mean Temperature 34 °F -  
Max Temperature 43 °F 37 °F 64 °F (1998)
Min Temperature 26 °F 24 °F 0 °F (2014)
Degree Days  
Heating Degree Days 30    
Moisture  
Dew Point 26 °F    
Average Humidity 64    
Maximum Humidity 88    
Minimum Humidity 49    
Precipitation  
Precipitation 0.00 in - - ()
Sea Level Pressure  
Sea Level Pressure 30.34 in    
Wind  
Wind Speed 7 mph (West)    
Max Wind Speed 13 mph    
Max Gust Speed -    
Visibility 9 miles    
Events      
Averages and records for this station are not official NWS values.
T = Trace of Precipitation, MM = Missing Value Source: NWS Daily Summary

Daily Weather History Graph

Daily Weather History Graph

Search for Another Location

Airport or City:

Trip Planner

Search our weather history database for the weather conditions in past years. The results will help you decide how hot, cold, wet, or windy it might be!

Date:

Astronomy

Jan. 07, 2013 Rise Set
Actual Time 7:29 AM EST 4:57 PM EST
Civil Twilight 6:59 AM EST 5:28 PM EST
Nautical Twilight 6:25 AM EST 6:02 PM EST
Astronomical Twilight 5:53 AM EST 6:34 PM EST
Moon 2:51 AM EST (1/7) 1:07 PM EST (1/7)
Length of Visible Light 10h 28m
Length of Day
9h 28m
Waning Crescent, 23% of the Moon is Illuminated
Jan 7
Waning Crescent
Jan 11
New
Jan 18
First Quarter
Jan 26
Full
Feb 3
Last Quarter

Hourly Weather History & Observations

Time (EST) Temp. Windchill Dew Point Humidity Pressure Visibility Wind Dir Wind Speed Gust Speed Precip Events Conditions
12:56 AM 39.9 °F 36.7 °F 28.9 °F 65% 30.14 in 10.0 mi WNW 4.6 mph - N/A   Overcast
1:56 AM 41.0 °F 37.1 °F 28.9 °F 62% 30.17 in 10.0 mi WNW 5.8 mph - N/A   Overcast
2:56 AM 41.0 °F 34.3 °F 28.0 °F 60% 30.19 in 10.0 mi WNW 11.5 mph - N/A   Overcast
3:56 AM 39.9 °F 34.5 °F 28.0 °F 63% 30.21 in 10.0 mi West 8.1 mph - N/A   Overcast
4:56 AM 39.9 °F 33.9 °F 27.0 °F 60% 30.23 in 10.0 mi West 9.2 mph - N/A   Overcast
5:56 AM 39.9 °F 33.4 °F 27.0 °F 60% 30.26 in 10.0 mi WNW 10.4 mph - N/A   Overcast
6:56 AM 39.9 °F 33.4 °F 28.0 °F 63% 30.29 in 10.0 mi West 10.4 mph - N/A   Overcast
7:56 AM 39.9 °F 35.8 °F 27.0 °F 60% 30.32 in 10.0 mi WNW 5.8 mph - N/A   Overcast
8:56 AM 39.0 °F 33.4 °F 27.0 °F 62% 30.36 in 10.0 mi West 8.1 mph - N/A   Overcast
10:56 AM 41.0 °F 33.9 °F 27.0 °F 57% 30.41 in 10.0 mi West 12.7 mph - N/A   Overcast
11:56 AM 42.1 °F 35.7 °F 27.0 °F 55% 30.40 in 10.0 mi West 11.5 mph - N/A   Overcast
12:56 PM 43.0 °F 38.8 °F 25.0 °F 49% 30.40 in 10.0 mi WNW 6.9 mph - N/A   Overcast
1:56 PM 42.1 °F 36.1 °F 26.1 °F 53% 30.39 in 10.0 mi WNW 10.4 mph - N/A   Overcast
2:56 PM 42.1 °F 37.1 °F 24.1 °F 49% 30.40 in 10.0 mi NW 8.1 mph - N/A   Mostly Cloudy
3:56 PM 39.9 °F 35.1 °F 24.1 °F 53% 30.41 in 10.0 mi West 6.9 mph - N/A   Scattered Clouds
4:56 PM 37.9 °F 35.5 °F 24.1 °F 57% 30.42 in 10.0 mi WSW 3.5 mph - N/A   Clear
5:56 PM 34.0 °F 29.8 °F 25.0 °F 70% 30.42 in 10.0 mi WSW 4.6 mph - N/A   Clear
7:56 PM 28.0 °F - 24.1 °F 85% 30.43 in 8.0 mi Calm Calm - N/A   Clear
8:56 PM 28.9 °F - 23.0 °F 78% 30.41 in 8.0 mi Calm Calm - N/A   Clear
9:56 PM 28.0 °F - 24.1 °F 85% 30.41 in 7.0 mi Calm Calm - N/A   Clear
10:56 PM 26.1 °F - 23.0 °F 88% 30.41 in 6.0 mi Calm Calm - N/A   Clear
11:56 PM 26.1 °F - 21.9 °F 84% 30.40 in 6.0 mi Calm Calm - N/A   Clear